Regional Weather Roundup
Issued by NWS Sioux Falls, SD

Home | Current Version | Previous Version | Text Only | Print | Product List | Glossary Off
Versions: 1 2 3 4 5 6 7 8 9 10 11 12 13 14 15 16 17 18 19 20 21 22 23 24 25 26 27 28 29 30 31 32 33 34 35 36 37 38 39 40 41 42 43 44 45 46 47 48 49 50

000
ASUS43 KFSD 271910
RWRFSD

WEATHER ROUNDUP FOR SE SOUTH DAKOTA/SW MINNESOTA/NW IOWA
NATIONAL WEATHER SERVICE SIOUX FALLS SD
200 PM CDT FRI MAR 27 2015

NOTE: "FAIR" INDICATES FEW OR NO CLOUDS BELOW 12,000 FEET WITH NO
SIGNIFICANT WEATHER AND OR OBSTRUCTIONS TO VISIBILITY.


SDZ038>040-050-052>070-272000-
SOUTHEAST SOUTH DAKOTA

CITY           SKY/WX    TMP DP  RH WIND       PRES   REMARKS
CHAMBERLAIN    CLOUDY    33  29  86 SE16      30.07F WCI  23
HURON          LGT SNOW  32  21  64 S13       30.12F WCI  22
MADISON        FAIR      32  10  40 SW8       30.13F WCI  25
MITCHELL       CLOUDY    35  19  52 S12       30.14F WCI  27
SIOUX FALLS    CLOUDY    34   9  35 S8        30.16F WCI  27
WINNER         FAIR      45  30  55 S22G28    30.02F
YANKTON        FAIR      36  14  41 S6        30.18F
$$

MNZ071-072-080-081-089-090-097-098-272000-
SOUTHWEST MINNESOTA

CITY           SKY/WX    TMP DP  RH WIND       PRES   REMARKS
FAIRMONT       FAIR      36   7  30 SW3       30.20F
JACKSON        FAIR      34   7  32 CALM      30.19F
LUVERNE        FAIR      34   7  32 S6        30.17F WCI  29
MARSHALL       FAIR      34   5  29 S5        30.18F WCI  30
MONTEVIDEO     FAIR      36  14  41 S3        30.19F
PIPESTONE      FAIR      32   7  34 SW8       30.14F WCI  25
REDWOOD FALLS  FAIR      32  11  41 SE7       30.20F WCI  26
TRACY          FAIR      34  10  36 S6        30.18F WCI  29
WINDOM         FAIR      36   7  30 S6        30.18F
WORTHINGTON    FAIR      32   3  29 SW6       30.18F WCI  26
$$

IAZ001>003-012>014-020>022-031-032-NEZ013-014-SDZ071-272000-
NORTHWEST IOWA

CITY           SKY/WX    TMP DP  RH WIND       PRES   REMARKS
CHEROKEE       FAIR      35  10  35 SW5       30.19F
DENISON        FAIR      36  10  35 CALM      30.18F
ESTHERVILLE    FAIR      34  10  37 CALM      30.19F
LE MARS        FAIR      36  12  38 S8        30.20F
ORANGE CITY    FAIR      34   9  35 CALM      30.18F
SHELDON        FAIR      32   9  37 CALM      30.17F
SIOUX CITY     FAIR      38  12  34 VRB5      30.20F
SPENCER        FAIR      34   8  33 SW5       30.19F WCI  30
STORM LAKE     FAIR      34   9  35 CALM      30.19F
$$

ABBREVIATIONS USED IN REMARKS
   TC - TEMPERATURE IN CELSIUS
  WCI - WIND CHILL INDEX
   HX - HEAT INDEX
  VSB - VISIBILITY



USA.gov is the U.S. government's official web portal to all federal, state and local government web resources and services.